This is the latest recevied weather packets stored in our database for station/object IK0OZB-10. If no packets are shown the sender has not sent any weather packets the latest 10 day(s).
| Time | Temp. | Humidity | Pressure | Rain* | Wind** | Luminosity | Snow |
|---|---|---|---|---|---|---|---|
| 1777508542 | 17.78° C | 79% | 1016.3 hPa | - | - | - | - |
| 1777507642 | 17.78° C | 78% | 1015.9 hPa | - | - | - | - |
| 1777506742 | 17.78° C | 80% | 1015.7 hPa | - | - | - | - |
| 1777505842 | 17.78° C | 80% | 1015.6 hPa | - | - | - | - |
| 1777504941 | 17.78° C | 82% | 1015.6 hPa | - | - | - | - |
| 1777504041 | 17.78° C | 81% | 1015.8 hPa | - | - | - | - |
| 1777503141 | 17.78° C | 80% | 1015.9 hPa | - | - | - | - |
| 1777502241 | 17.78° C | 81% | 1015.9 hPa | - | - | - | - |
| 1777501341 | 17.78° C | 81% | 1015.8 hPa | - | - | - | - |
| 1777500441 | 17.78° C | 80% | 1015.6 hPa | - | - | - | - |
| 1777499541 | 17.78° C | 78% | 1015.4 hPa | - | - | - | - |
| 1777498640 | 17.22° C | 77% | 1015.4 hPa | - | - | - | - |
| 1777497740 | 17.78° C | 79% | 1015.6 hPa | - | - | - | - |
| 1777496840 | 17.78° C | 79% | 1015.7 hPa | - | - | - | - |
| 1777495940 | 18.33° C | 80% | 1015.8 hPa | - | - | - | - |
| 1777495040 | 18.33° C | 77% | 1015.7 hPa | - | - | - | - |
| 1777494140 | 18.33° C | 77% | 1015.7 hPa | - | - | - | - |
| 1777493240 | 18.33° C | 78% | 1015.5 hPa | - | - | - | - |
| 1777492339 | 18.33° C | 77% | 1015.5 hPa | - | - | - | - |
| 1777491439 | 18.33° C | 75% | 1015.5 hPa | - | - | - | - |
| 1777490539 | 18.33° C | 75% | 1015.6 hPa | - | - | - | - |
| 1777489639 | 17.78° C | 72% | 1015.6 hPa | - | - | - | - |
| 1777488739 | 17.78° C | 69% | 1015.4 hPa | - | - | - | - |
| 1777487839 | 17.78° C | 67% | 1015.3 hPa | - | - | - | - |
| 1777486939 | 18.89° C | 57% | 1015.3 hPa | - | - | - | - |
* Rain since midnight (hover to see other rain measurements)
** Current wind speed in m/s (hover to see current wind gust speed)